Location: Milton
(43.5183°N, 79.8775°W)
Time: 13:25:05
(UTC+00:00)

ITUPSAT 1 - Visible Passes

Search period start: 25 March 2023 00:00
Search period end: 04 April 2023 00:00
Orbit: 699 x 709 km, 98.5° (Epoch: 24 March)

Date Brightness Start Highest point End Pass type
(mag) Time Alt. Az. Time Alt. Az. Time Alt. Az.
25 Mar ? 01:36:35 10° NE 01:36:55 11° NE 01:36:55 11° NE visible
25 Mar ? 03:13:57 10° N 03:15:51 22° NNW 03:15:51 22° NNW visible
26 Mar ? 02:19:19 10° NNE 02:20:58 21° NNE 02:20:58 21° NNE visible
26 Mar ? 03:58:27 10° NNW 03:59:54 14° NW 03:59:54 14° NW visible
27 Mar ? 01:25:56 10° NE 01:26:05 11° NE 01:26:05 11° NE visible
27 Mar ? 03:02:47 10° N 03:05:01 26° N 03:05:01 26° N visible
28 Mar ? 02:08:21 10° NNE 02:10:07 22° NNE 02:10:07 22° NNE visible
28 Mar ? 03:46:59 10° NNW 03:49:03 18° NW 03:49:03 18° NW visible
29 Mar ? 02:51:39 10° N 02:54:09 30° N 02:54:09 30° N visible
30 Mar ? 01:57:26 10° NNE 01:59:14 21° NE 01:59:14 21° NE visible
30 Mar ? 03:35:37 10° N 03:38:10 22° NW 03:38:10 22° NW visible
31 Mar ? 02:40:33 10° N 02:43:15 34° N 02:43:15 34° N visible
31 Mar ? 04:21:26 10° NW 04:22:11 10° NW 04:22:11 10° NW visible
01 Apr ? 01:46:35 10° NE 01:48:20 20° NE 01:48:20 20° NE visible
01 Apr ? 03:24:18 10° N 03:27:16 27° NW 03:27:16 27° NW visible
02 Apr ? 02:29:28 10° NNE 02:32:20 36° NNE 02:32:20 36° NNE visible
02 Apr ? 04:09:08 10° NNW 04:11:17 13° WNW 04:11:17 13° WNW visible
03 Apr ? 01:35:47 10° NE 01:37:25 17° ENE 01:37:25 17° ENE visible
03 Apr ? 03:13:03 10° N 03:16:20 33° NW 03:16:20 33° NW visible
